#timestamp,LO_Frequency,Hit,StdDev 
1645441215.2,286046981.6,Y
1645441235.0,286046989.2,P
1645441235.9,286046989.2,P
1645441255.8,286046988.7,P
1645441275.6,286046990.4,Y
1645441295.4,286047000.1,P
1645441315.3,286047002.3,N
1645441335.1,286047002.4,N
1645441355.8,286046999.6,N
1645441375.7,286046997.8,N
1645441395.5,286046998.4,N
1645441415.4,286047004.1,N
1645441435.2,286047003.8,N
1645441455.0,286047008.5,N
1645441455.9,286047008.5,N
1645441475.8,286047011.1,N
1645441495.6,286047010.4,N
1645441515.4,286047006.4,N
1645441535.3,286047001.0,N
1645441555.1,286046997.0,N
1645441575.9,286046993.6,N
1645441595.7,286046990.2,N
1645441615.5,286046992.3,N
1645441635.4,286046993.9,N
1645441655.2,286046995.7,N
1645441675.0,286046999.6,N
1645441676.0,286046999.6,N
1645441695.8,286046993.9,N
1645441715.6,286046994.7,N
1645441735.5,286046991.1,N
1645441755.3,286046987.6,N
1645441775.1,286046986.3,N
1645441795.9,286046993.3,N
1645441815.7,286046994.7,N
1645441835.6,286046992.0,N
1645441855.4,286046992.3,N
1645441875.2,286046993.7,N
1645441895.1,286046999.0,N
1645441896.0,286046999.0,N
1645441915.8,286046999.6,N
1645441935.6,286046997.2,N
1645441955.5,286046995.3,N
1645441975.3,286046992.5,N
1645441995.1,286046990.6,N
1645442015.9,286046992.8,N
1645442035.7,286046990.7,N
1645442055.6,286046990.4,N
1645442075.4,286046993.8,N
1645442095.2,286046992.1,N
1645442115.1,286046991.4,N
1645442116.0,286046991.4,N
1645442135.8,286046985.8,Y
1645442155.7,286046991.6,P
1645442175.5,286046992.7,P
1645442195.3,286046996.0,P
1645442215.2,286046995.0,Y
1645442235.0,286047004.3,P
1645442235.9,286047004.3,N
1645442255.7,286047000.6,N
1645442275.6,286047001.6,N
1645442295.4,286047002.6,N
1645442315.3,286047003.6,N
1645442335.1,286047005.8,N
1645442336.0,286047005.8,N
1645442355.8,286047002.0,N
1645442375.7,286047001.4,N
1645442395.5,286047008.4,N
1645442415.3,286047005.1,N
1645442435.2,286047003.6,N
1645442455.0,286047006.5,N
1645442455.9,286047006.5,N
1645442475.8,286047011.7,Y
1645442495.6,286047006.0,P
1645442515.4,286047009.2,P
1645442535.3,286047010.7,P
1645442555.1,286047009.7,Y
1645442575.9,286047006.8,P
1645442595.7,286047001.8,P
1645442615.5,286046993.6,N
1645442635.4,286046992.6,N
1645442655.2,286046994.2,N
1645442675.0,286046994.5,N
1645442675.9,286046994.5,N
1645442695.8,286046989.6,N
1645442715.6,286046988.8,N
1645442735.5,286046993.9,N
1645442755.3,286046992.1,N
1645442775.1,286046997.2,N
1645442795.9,286047000.6,N
1645442815.7,286046999.3,N
1645442835.5,286046996.9,N
1645442855.4,286046995.4,N
1645442875.2,286046995.5,N
1645442895.1,286046997.0,N
1645442896.0,286046997.0,N
1645442915.8,286046992.6,N
1645442935.6,286046992.9,N
1645442955.5,286046992.1,N
1645442975.3,286046990.3,N
1645442995.1,286046988.9,N
1645443015.9,286046992.5,N
1645443035.7,286046997.2,N
1645443055.6,286046996.0,N
1645443075.4,286046990.6,N
1645443095.2,286046994.6,N
1645443115.1,286046995.2,N
1645443116.0,286046995.2,N
1645443135.8,286046997.3,N
1645443155.6,286046996.8,N
1645443175.5,286046996.3,N
1645443195.3,286046996.6,N
1645443215.2,286047000.0,N
1645443235.9,286047002.0,N
1645443255.7,286047000.9,N
1645443275.6,286046997.7,N
1645443295.4,286046997.2,N
1645443315.2,286046996.2,N
1645443335.1,286046992.3,N
1645443336.0,286046992.3,N
1645443355.8,286046996.4,N
1645443375.7,286046994.9,N
1645443395.5,286047002.4,N
1645443415.3,286047006.7,N
1645443435.2,286047005.9,N
1645443455.0,286047001.8,N
1645443455.9,286047001.8,N
1645443475.8,286047003.2,N
1645443495.6,286047003.0,N
1645443515.4,286046999.4,N
1645443535.3,286046997.4,N
1645443555.1,286046994.5,N
1645443575.8,286046993.9,N
1645443595.7,286046993.3,N
1645443615.5,286046997.6,N
1645443635.3,286046990.4,N
1645443655.2,286046990.7,N
1645443675.0,286046990.1,N
1645443675.9,286046990.1,N
1645443695.8,286046985.8,Y
1645443715.6,286046986.8,P
1645443735.4,286046985.2,N
1645443755.3,286046982.8,P
1645443775.1,286046977.3,Y
1645443795.9,286046987.5,P
1645443815.7,286046990.0,P
1645443835.5,286046990.9,P
1645443855.4,286046992.4,Y
1645443875.2,286047002.2,P
1645443895.0,286046996.7,N
1645443896.0,286046996.7,N
1645443915.8,286046995.9,N
1645443935.6,286046995.0,N
1645443955.5,286046997.5,N
1645443975.3,286047002.1,N
1645443995.1,286047006.3,N
1645444015.9,286047009.8,N
1645444035.7,286047007.5,N
1645444055.6,286047004.8,N
1645444075.4,286047005.1,N
1645444095.2,286047005.3,N
1645444115.1,286046999.2,N
1645444116.0,286046999.2,N
1645444135.8,286046992.7,N
1645444155.6,286046990.5,N
1645444175.5,286046992.9,N
1645444195.3,286046988.8,N
1645444215.2,286046992.0,N
1645444235.9,286046985.4,N
1645444255.7,286046989.3,N
1645444275.6,286046988.7,N
1645444295.4,286046987.5,N
1645444315.2,286046983.2,N
1645444335.1,286046979.5,N
1645444336.0,286046979.5,N
1645444355.8,286046979.6,N
1645444375.7,286046980.4,N
1645444395.5,286046975.5,N
1645444415.3,286046972.9,N
1645444435.2,286046971.3,N
1645444455.0,286046968.1,Y
1645444455.9,286046968.1,P
1645444475.8,286046975.0,N
1645444495.6,286046970.6,N
1645444515.4,286046970.3,Y
1645444535.3,286046991.6,P
1645444555.1,286046989.1,N
1645444575.8,286046989.2,N
1645444595.7,286046989.1,N
1645444615.5,286046988.9,N
1645444635.4,286046988.6,N
1645444655.2,286046989.3,N
1645444675.0,286046993.4,N
1645444675.9,286046993.4,N
1645444695.8,286046995.0,N
1645444715.6,286046994.3,N
1645444735.4,286046992.5,N
1645444755.3,286046996.3,N
1645444775.1,286047000.4,N
1645444795.9,286047004.2,N
